Yaogan 39 03 zu 03 xing

operational
NORAD ID: 57990 Int'l Des: 2023-152 Owner: ZZB Country: CN Constellation: yaogan
LEOCIRCULAR

Über Yaogan 39 03 zu 03 xing

Beschreibung wird geladen...

Live-Position

3D-Globus wird geladen...

Nächste Überflüge

Höhenverlauf

Altitude vs Time

uPlot chart will show altitude changes over time

Zweizeiliger Elementsatz

1 57990U 23152E 26062.53610804 .00006972 00000-0 34608-3 0 9994
2 57990 34.9892 234.9418 0010769 277.6908 82.2582 15.16962723134108
Epoch: 3. März 2026 • Age: 34 hours

Aktueller Status

Höhe 515.8 km
Geschwindigkeit 7.61 km/s
Subsatellitenpunkt -18.18°S, 119.98°E
Startdatum 5. Okt. 2023
Alter 2.4 years
Typ military

Technische Details

Klassifizierung Payload
Masse 300.00 kg
Trockenmasse 300.00 kg
Gesamtmasse 300.00 kg
Länge 2.50 m
Durchmesser 2.50 m
Spannweite 5.00 m
Form Box + 2 Pan
Hersteller DFHZ
Phasenstatus In Orbit
Besitzer/Staat ZZB/CN

Große Konstellationen

Loading constellations...